TimeEDT,TemperatureF,Dew PointF,Humidity,Sea Level PressureIn,VisibilityMPH,Wind Direction,Wind SpeedMPH,Gust SpeedMPH,PrecipitationIn,Events,Conditions,WindDirDegrees,DateUTC
12:53 AM,62.1,48.0,60,30.22,10.0,NNE,10.4,-,N/A,,Clear,30,2013-03-28 04:53:00
1:53 AM,61.0,45.0,56,30.21,10.0,NNE,9.2,-,N/A,,Clear,30,2013-03-28 05:53:00
2:53 AM,61.0,45.0,56,30.20,10.0,NNE,9.2,-,N/A,,Partly Cloudy,30,2013-03-28 06:53:00
3:53 AM,62.1,43.0,50,30.18,10.0,NNE,11.5,-,N/A,,Mostly Cloudy,20,2013-03-28 07:53:00
4:53 AM,61.0,46.0,58,30.18,8.0,NNE,13.8,19.6,N/A,,Clear,30,2013-03-28 08:53:00
5:53 AM,60.1,45.0,57,30.17,10.0,NNE,8.1,18.4,N/A,,Clear,30,2013-03-28 09:53:00
6:03 AM,60.8,46.4,59,30.18,10.0,NNE,9.2,-,N/A,,Clear,30,2013-03-28 10:03:00
6:53 AM,60.1,46.0,60,30.19,10.0,NNE,9.2,-,N/A,,Partly Cloudy,30,2013-03-28 10:53:00
7:53 AM,61.0,46.9,60,30.21,10.0,NE,11.5,-,N/A,,Partly Cloudy,40,2013-03-28 11:53:00
8:53 AM,63.0,46.0,54,30.23,10.0,NNE,13.8,19.6,N/A,,Partly Cloudy,30,2013-03-28 12:53:00
9:53 AM,64.9,46.0,50,30.25,10.0,NNE,15.0,-,N/A,,Partly Cloudy,20,2013-03-28 13:53:00
10:53 AM,66.0,48.0,52,30.26,10.0,NE,15.0,21.9,N/A,,Partly Cloudy,40,2013-03-28 14:53:00
11:53 AM,68.0,46.9,47,30.26,10.0,NNE,13.8,20.7,N/A,,Partly Cloudy,20,2013-03-28 15:53:00
12:53 PM,69.1,48.0,47,30.25,10.0,NE,15.0,-,N/A,,Clear,40,2013-03-28 16:53:00
1:53 PM,70.0,46.9,44,30.22,10.0,NNE,15.0,24.2,N/A,,Partly Cloudy,20,2013-03-28 17:53:00
2:53 PM,69.1,46.0,44,30.20,10.0,NNE,15.0,-,N/A,,Partly Cloudy,20,2013-03-28 18:53:00
3:53 PM,70.0,46.0,42,30.18,10.0,NNE,16.1,-,N/A,,Partly Cloudy,20,2013-03-28 19:53:00
4:53 PM,71.1,46.0,41,30.17,10.0,North,12.7,-,N/A,,Partly Cloudy,10,2013-03-28 20:53:00
5:53 PM,70.0,45.0,41,30.18,10.0,North,10.4,-,N/A,,Partly Cloudy,10,2013-03-28 21:53:00
6:53 PM,68.0,46.9,47,30.19,10.0,North,9.2,-,N/A,,Clear,10,2013-03-28 22:53:00
7:53 PM,66.0,48.9,54,30.20,7.0,North,8.1,-,N/A,,Clear,10,2013-03-28 23:53:00
8:53 PM,64.9,51.1,61,30.21,10.0,North,5.8,-,N/A,,Clear,360,2013-03-29 00:53:00
9:53 PM,64.9,54.0,68,30.23,10.0,ENE,4.6,-,N/A,,Clear,70,2013-03-29 01:53:00
10:53 PM,64.0,55.0,73,30.24,10.0,NNE,4.6,-,N/A,,Clear,30,2013-03-29 02:53:00
11:53 PM,64.9,55.9,73,30.24,10.0,NNE,8.1,-,N/A,,Clear,20,2013-03-29 03:53:00